Location: Dodgeville, WI 53533, USA
(43.0344°N, 90.0900°W)
Time: 14:51:00
(UTC-05:00)

N. Korean satellite - Visible Passes

Search period start: 25 September 2022 00:00
Search period end: 05 October 2022 00:00
Orbit: 427 x 468 km, 97.3° (Epoch: 25 September)

Date Brightness Start Highest point End Pass type
(mag) Time Alt. Az. Time Alt. Az. Time Alt. Az.
26 Sep 7.6 06:00:10 10° NNE 06:03:21 44° E 06:06:28 10° S visible
27 Sep 9.6 05:25:33 10° NE 05:27:32 15° E 05:29:30 10° SE visible
28 Sep 6.3 06:21:28 10° NNE 06:24:46 87° W 06:28:01 10° SSW visible
29 Sep 8.6 05:46:07 10° NE 05:49:00 28° E 05:51:51 10° SSE visible
01 Oct 7.1 06:07:03 10° NNE 06:10:16 56° E 06:13:29 10° S visible
02 Oct 9.4 05:32:00 10° NE 05:34:21 18° E 05:36:42 10° SE visible
03 Oct 6.2 06:28:05 10° N 06:31:22 70° WNW 06:34:36 10° SSW visible
04 Oct 8.2 05:52:27 10° NNE 05:55:29 34° E 05:58:29 10° SSE visible
